timestamp,wind_dir_avg,wind_spd_max_dir,wind_spd_avg,wind_spd_gust,battery_voltage,lat,long
2018-11-27 00:00:00+00:00,29.0,26.0,7.85,9.05,,47.59359,-54.27349
2018-11-27 00:10:00+00:00,26.0,31.0,8.23,9.34,,47.59359,-54.27349
2018-11-27 00:20:00+00:00,28.0,26.0,8.17,9.29,,47.59359,-54.27349
2018-11-27 00:30:00+00:00,29.0,28.0,8.07,9.27,,47.59359,-54.27349
2018-11-27 00:40:00+00:00,27.0,30.0,6.33,7.81,,47.59359,-54.27349
2018-11-27 00:50:00+00:00,32.0,31.0,8.49,9.42,,47.59359,-54.27349
2018-11-27 01:00:00+00:00,29.0,26.0,8.09,9.05,,47.59359,-54.27349
2018-11-27 01:10:00+00:00,26.0,26.0,8.68,9.83,,47.59359,-54.27349
2018-11-27 01:20:00+00:00,27.0,16.0,9.0,10.59,,47.59359,-54.27349
2018-11-27 01:30:00+00:00,40.0,38.0,9.35,10.68,,47.59359,-54.27349
2018-11-27 01:40:00+00:00,30.0,31.0,10.35,12.22,,47.59359,-54.27349
2018-11-27 01:50:00+00:00,30.0,25.0,8.32,9.0,,47.59359,-54.27349
2018-11-27 02:00:00+00:00,33.0,31.0,8.01,9.27,,47.59359,-54.27349
2018-11-27 02:10:00+00:00,24.0,20.0,8.09,9.39,,47.59359,-54.27349
2018-11-27 02:20:00+00:00,21.0,19.0,6.23,7.49,,47.59359,-54.27349
2018-11-27 02:30:00+00:00,28.0,31.0,7.1,7.9,,47.59359,-54.27349
2018-11-27 02:40:00+00:00,36.0,37.0,7.04,7.82,,47.59359,-54.27349
2018-11-27 02:50:00+00:00,22.0,23.0,5.59,6.43,,47.59359,-54.27349
2018-11-27 03:00:00+00:00,34.0,35.0,5.98,6.96,,47.59359,-54.27349
2018-11-27 03:10:00+00:00,20.0,21.0,5.37,6.24,,47.59359,-54.27349
2018-11-27 03:20:00+00:00,29.0,32.0,4.97,5.81,,47.59359,-54.27349
2018-11-27 03:30:00+00:00,30.0,32.0,6.28,7.36,,47.59359,-54.27349
2018-11-27 03:40:00+00:00,39.0,42.0,6.91,8.1,,47.59359,-54.27349
2018-11-27 03:50:00+00:00,30.0,36.0,6.72,8.56,,47.59359,-54.27349
2018-11-27 04:00:00+00:00,32.0,36.0,7.4,8.9,,47.59359,-54.27349
2018-11-27 04:10:00+00:00,25.0,34.0,7.0,7.92,,47.59359,-54.27349
2018-11-27 04:20:00+00:00,34.0,23.0,7.51,9.38,,47.59359,-54.27349
2018-11-27 04:30:00+00:00,33.0,34.0,9.35,10.35,,47.59359,-54.27349
2018-11-27 04:40:00+00:00,31.0,32.0,7.19,8.45,,47.59359,-54.27349
2018-11-27 04:50:00+00:00,34.0,35.0,7.19,8.7,,47.59359,-54.27349
2018-11-27 05:00:00+00:00,37.0,34.0,6.81,7.7,,47.59359,-54.27349
2018-11-27 05:10:00+00:00,35.0,43.0,7.84,9.04,,47.59359,-54.27349
2018-11-27 05:20:00+00:00,29.0,34.0,7.28,8.28,,47.59359,-54.27349
2018-11-27 05:30:00+00:00,23.0,29.0,6.75,7.75,,47.59359,-54.27349
2018-11-27 05:40:00+00:00,22.0,21.0,6.57,7.59,,47.59359,-54.27349
2018-11-27 05:50:00+00:00,31.0,34.0,6.62,7.66,,47.59359,-54.27349
2018-11-27 06:00:00+00:00,30.0,34.0,7.12,8.14,,47.59359,-54.27349
2018-11-27 06:10:00+00:00,27.0,28.0,6.92,7.84,,47.59359,-54.27349
2018-11-27 06:20:00+00:00,20.0,16.0,7.42,8.37,,47.59359,-54.27349
2018-11-27 06:30:00+00:00,22.0,16.0,7.2,8.54,,47.59359,-54.27349
2018-11-27 06:40:00+00:00,18.0,16.0,7.02,7.92,,47.59359,-54.27349
2018-11-27 06:50:00+00:00,17.0,16.0,6.85,8.05,,47.59359,-54.27349
2018-11-27 07:00:00+00:00,24.0,29.0,6.45,7.61,,47.59359,-54.27349
2018-11-27 07:10:00+00:00,27.0,30.0,6.94,7.83,,47.59359,-54.27349
2018-11-27 07:20:00+00:00,22.0,15.0,6.87,8.05,,47.59359,-54.27349
2018-11-27 07:30:00+00:00,25.0,25.0,7.48,8.99,,47.59359,-54.27349
2018-11-27 07:40:00+00:00,30.0,31.0,7.48,8.69,,47.59359,-54.27349
2018-11-27 07:50:00+00:00,28.0,34.0,7.78,9.78,,47.59359,-54.27349
2018-11-27 08:00:00+00:00,27.0,31.0,7.35,8.84,,47.59359,-54.27349
2018-11-27 08:10:00+00:00,32.0,27.0,7.5,9.42,,47.59359,-54.27349
2018-11-27 08:20:00+00:00,31.0,34.0,8.61,9.59,,47.59359,-54.27349
2018-11-27 08:30:00+00:00,36.0,35.0,9.65,10.85,,47.59359,-54.27349
2018-11-27 08:40:00+00:00,37.0,38.0,10.13,11.21,,47.59359,-54.27349
2018-11-27 08:50:00+00:00,36.0,37.0,9.52,10.46,,47.59359,-54.27349
2018-11-27 09:00:00+00:00,40.0,46.0,8.5,10.05,,47.59359,-54.27349
2018-11-27 09:10:00+00:00,36.0,42.0,7.75,8.59,,47.59359,-54.27349
2018-11-27 09:20:00+00:00,35.0,35.0,8.89,9.85,,47.59359,-54.27349
2018-11-27 09:30:00+00:00,36.0,39.0,9.17,10.46,,47.59359,-54.27349
2018-11-27 09:40:00+00:00,38.0,35.0,9.87,11.23,,47.59359,-54.27349
2018-11-27 09:50:00+00:00,40.0,44.0,9.95,11.6,,47.59359,-54.27349
2018-11-27 10:00:00+00:00,39.0,38.0,8.9,10.07,,47.59359,-54.27349
2018-11-27 10:10:00+00:00,36.0,38.0,9.74,10.92,,47.59359,-54.27349
2018-11-27 10:20:00+00:00,41.0,44.0,8.76,10.33,,47.59359,-54.27349
2018-11-27 10:30:00+00:00,39.0,34.0,9.5,10.56,,47.59359,-54.27349
2018-11-27 10:40:00+00:00,40.0,39.0,8.6,9.84,,47.59359,-54.27349
2018-11-27 10:50:00+00:00,42.0,48.0,9.17,10.18,,47.59359,-54.27349
2018-11-27 11:00:00+00:00,39.0,40.0,9.14,9.92,,47.59359,-54.27349
2018-11-27 11:10:00+00:00,39.0,38.0,9.78,10.6,,47.59359,-54.27349
2018-11-27 11:20:00+00:00,43.0,41.0,10.03,11.1,,47.59359,-54.27349
2018-11-27 11:30:00+00:00,48.0,50.0,8.7,10.01,,47.59359,-54.27349
2018-11-27 11:40:00+00:00,49.0,51.0,8.92,10.03,,47.59359,-54.27349
2018-11-27 11:50:00+00:00,46.0,49.0,11.16,12.15,,47.59359,-54.27349
2018-11-27 12:00:00+00:00,46.0,49.0,9.95,11.21,,47.59359,-54.27349
2018-11-27 12:10:00+00:00,49.0,51.0,11.92,13.01,,47.59359,-54.27349
2018-11-27 12:20:00+00:00,47.0,50.0,10.07,11.12,,47.59359,-54.27349
2018-11-27 12:30:00+00:00,50.0,49.0,10.34,11.64,,47.59359,-54.27349
2018-11-27 12:40:00+00:00,45.0,51.0,10.31,11.78,,47.59359,-54.27349
2018-11-27 12:50:00+00:00,49.0,52.0,11.97,13.9,,47.59359,-54.27349
2018-11-27 13:00:00+00:00,52.0,53.0,10.19,11.6,,47.59359,-54.27349
2018-11-27 13:10:00+00:00,47.0,45.0,11.81,13.15,,47.59359,-54.27349
2018-11-27 13:20:00+00:00,56.0,57.0,8.57,10.26,,47.59359,-54.27349
2018-11-27 13:30:00+00:00,54.0,58.0,11.32,13.29,,47.59359,-54.27349
2018-11-27 13:40:00+00:00,50.0,53.0,12.17,14.39,,47.59359,-54.27349
2018-11-27 13:50:00+00:00,55.0,55.0,9.51,10.87,,47.59359,-54.27349
2018-11-27 14:00:00+00:00,53.0,54.0,10.46,11.75,,47.59359,-54.27349
2018-11-27 14:10:00+00:00,51.0,52.0,10.14,11.34,,47.59359,-54.27349
2018-11-27 14:20:00+00:00,51.0,50.0,10.41,11.42,,47.59359,-54.27349
2018-11-27 14:30:00+00:00,53.0,53.0,9.8,10.69,,47.59359,-54.27349
2018-11-27 14:40:00+00:00,54.0,56.0,10.69,11.85,,47.59359,-54.27349
2018-11-27 14:50:00+00:00,53.0,51.0,9.21,10.82,,47.59359,-54.27349
2018-11-27 15:00:00+00:00,50.0,45.0,8.75,10.17,,47.59359,-54.27349
2018-11-27 15:10:00+00:00,52.0,49.0,9.73,10.6,,47.59359,-54.27349
2018-11-27 15:20:00+00:00,53.0,55.0,9.78,10.61,,47.59359,-54.27349
2018-11-27 15:30:00+00:00,42.0,45.0,8.2,9.07,,47.59359,-54.27349
2018-11-27 15:40:00+00:00,49.0,43.0,8.95,9.87,,47.59359,-54.27349
2018-11-27 15:50:00+00:00,48.0,43.0,8.76,10.02,,47.59359,-54.27349
2018-11-27 16:00:00+00:00,49.0,45.0,9.1,10.15,,47.59359,-54.27349
2018-11-27 16:10:00+00:00,50.0,53.0,8.45,9.0,,47.59359,-54.27349
2018-11-27 16:20:00+00:00,47.0,45.0,9.51,10.32,,47.59359,-54.27349
2018-11-27 16:30:00+00:00,64.0,64.0,8.41,9.41,,47.59359,-54.27349
2018-11-27 16:40:00+00:00,61.0,61.0,6.96,8.22,,47.59359,-54.27349
2018-11-27 16:50:00+00:00,58.0,61.0,8.15,9.29,,47.59359,-54.27349
2018-11-27 17:00:00+00:00,54.0,56.0,7.9,8.56,,47.59359,-54.27349
2018-11-27 17:10:00+00:00,63.0,58.0,8.3,9.01,,47.59359,-54.27349
2018-11-27 17:20:00+00:00,68.0,73.0,8.12,9.03,,47.59359,-54.27349
2018-11-27 17:30:00+00:00,58.0,60.0,7.95,9.11,,47.59359,-54.27349
2018-11-27 17:40:00+00:00,54.0,54.0,7.52,8.97,,47.59359,-54.27349
2018-11-27 17:50:00+00:00,49.0,48.0,8.51,9.32,,47.59359,-54.27349
2018-11-27 18:00:00+00:00,54.0,53.0,7.66,8.53,,47.59359,-54.27349
2018-11-27 18:10:00+00:00,53.0,51.0,7.74,8.3,,47.59359,-54.27349
2018-11-27 18:20:00+00:00,57.0,57.0,8.29,9.08,,47.59359,-54.27349
2018-11-27 18:30:00+00:00,54.0,56.0,9.63,10.45,,47.59359,-54.27349
2018-11-27 18:40:00+00:00,45.0,46.0,7.95,9.34,,47.59359,-54.27349
2018-11-27 18:50:00+00:00,53.0,52.0,8.76,9.23,,47.59359,-54.27349
2018-11-27 19:00:00+00:00,58.0,59.0,8.19,9.12,,47.59359,-54.27349
2018-11-27 19:10:00+00:00,48.0,51.0,9.66,10.52,,47.59359,-54.27349
2018-11-27 19:20:00+00:00,58.0,64.0,7.99,9.79,,47.59359,-54.27349
2018-11-27 19:30:00+00:00,53.0,49.0,7.64,8.67,,47.59359,-54.27349
2018-11-27 19:40:00+00:00,61.0,59.0,8.76,9.69,,47.59359,-54.27349
2018-11-27 19:50:00+00:00,51.0,53.0,8.32,9.67,,47.59359,-54.27349
2018-11-27 20:00:00+00:00,52.0,50.0,8.92,10.91,,47.59359,-54.27349
2018-11-27 20:10:00+00:00,52.0,55.0,8.4,9.27,,47.59359,-54.27349
2018-11-27 20:20:00+00:00,53.0,55.0,8.55,9.33,,47.59359,-54.27349
2018-11-27 20:30:00+00:00,56.0,58.0,8.45,9.63,,47.59359,-54.27349
2018-11-27 20:40:00+00:00,56.0,55.0,8.32,9.32,,47.59359,-54.27349
2018-11-27 20:50:00+00:00,55.0,54.0,8.34,9.2,,47.59359,-54.27349
2018-11-27 21:00:00+00:00,60.0,59.0,8.68,9.92,,47.59359,-54.27349
2018-11-27 21:10:00+00:00,63.0,57.0,8.15,8.86,,47.59359,-54.27349
2018-11-27 21:20:00+00:00,60.0,62.0,8.76,9.54,,47.59359,-54.27349
2018-11-27 21:30:00+00:00,66.0,62.0,9.73,11.09,,47.59359,-54.27349
2018-11-27 21:40:00+00:00,69.0,68.0,9.14,10.1,,47.59359,-54.27349
2018-11-27 21:50:00+00:00,73.0,74.0,8.1,9.23,,47.59359,-54.27349
2018-11-27 22:00:00+00:00,62.0,65.0,7.69,8.56,,47.59359,-54.27349
2018-11-27 22:10:00+00:00,53.0,54.0,9.28,10.21,,47.59359,-54.27349
2018-11-27 22:20:00+00:00,53.0,54.0,8.81,10.0,,47.59359,-54.27349
2018-11-27 22:30:00+00:00,55.0,60.0,7.39,8.34,,47.59359,-54.27349
2018-11-27 22:40:00+00:00,57.0,55.0,7.79,8.53,,47.59359,-54.27349
2018-11-27 22:50:00+00:00,57.0,59.0,7.75,9.3,,47.59359,-54.27349
2018-11-27 23:00:00+00:00,45.0,51.0,8.57,9.3,,47.59359,-54.27349
2018-11-27 23:10:00+00:00,50.0,50.0,8.75,9.96,,47.59359,-54.27349
2018-11-27 23:20:00+00:00,50.0,55.0,8.5,9.8,,47.59359,-54.27349
2018-11-27 23:30:00+00:00,51.0,50.0,9.0,10.05,,47.59359,-54.27349
2018-11-27 23:40:00+00:00,52.0,51.0,8.3,9.19,,47.59359,-54.27349
2018-11-27 23:50:00+00:00,54.0,58.0,7.98,9.36,,47.59359,-54.27349
